Location: Tierra del Sol
(32.6128°N, 116.3319°W)
Time: 19:14:53
(UTC-07:00)

Daily predictions for brighter satellites

Satellite Brightness Start Highest point End
(mag) Time Altitude Azimuth Time Altitude Azimuth Time Altitude Azimuth
NOSS 3-2 (C) 4.4 19:58:35 10° NNW 20:06:20 75° WSW 20:14:34 10° SSE
Meteor 1-29 4.5 20:08:46 10° NE 20:11:08 18° E 20:13:28 10° SE
Okean 1 3.5 20:09:59 10° S 20:13:55 78° W 20:17:53 10° N
NOSS 2-2 (D) 4.2 20:11:38 10° SW 20:15:32 57° WNW 20:19:46 10° NNE
CENTAUR R/B 3.5 20:08:40 10° NNW 20:16:27 51° NE 20:24:35 10° SE
ALOS 3.7 20:14:25 10° SSW 20:18:46 39° W 20:23:08 10° NNW
ASTRO E2 2.8 20:16:55 10° W 20:20:53 64° S 20:24:50 10° ESE
COSMOS 2406 3.2 20:15:25 10° SSW 20:21:07 74° ESE 20:26:49 10° NNE
Cosmos 1975 2.8 20:22:25 10° N 20:26:30 81° E 20:30:35 10° S
Cosmos 1743 3.5 20:23:04 10° NNE 20:26:37 33° E 20:30:08 10° SE
Cosmos 1346 3.4 20:24:05 10° SSE 20:26:40 37° E 20:29:15 10° NNE
ISS -2.3 20:24:35 10° WSW 20:27:43 41° NW 20:30:52 10° NNE
Meteor 1-13 Rocket 4.4 20:23:03 10° S 20:28:54 63° E 20:34:44 10° NNE
Cosmos 2112 Rocket 4.0 20:26:39 10° S 20:31:47 60° ESE 20:36:54 10° NNE
CZ-2D R/B 3.7 20:30:58 10° S 20:34:44 63° W 20:38:32 10° NNW
SL-27 R/B 2.6 20:34:22 10° S 20:37:56 57° ESE 20:41:32 10° NNE
SAR-Lupe-4 4.4 20:35:32 14° SE 20:38:12 34° ENE 20:41:30 10° N
OAO 2 Rocket 3.6 20:33:38 10° W 20:38:32 66° N 20:43:28 10° E
Helios 1A 3.3 20:35:28 11° SSE 20:39:26 51° ENE 20:43:31 10° N
Spot 2 Rocket 3.9 20:35:46 10° S 20:40:46 64° WSW 20:45:46 10° NNW
Aureole 3 Rocket 3.8 20:35:28 10° S 20:42:20 67° E 20:47:11 10° NNE
YAOGAN 6 3.9 20:41:00 16° ESE 20:42:41 23° ENE 20:45:29 10° NNE
Cosmos 1939 Rocket 3.2 20:40:11 14° SE 20:43:12 43° ENE 20:46:53 10° N
Cosmos 1666 3.1 20:45:31 10° N 20:49:04 40° E 20:51:14 20° SE
USA 81 4.3 20:45:06 10° S 20:50:21 73° W 20:55:39 10° N
Okean 1-7 Rocket 3.9 20:48:28 12° SSE 20:52:23 44° E 20:56:39 10° NNE
Cosmos 1680 Rocket 3.9 20:49:06 10° SSW 20:54:18 67° WNW 20:59:30 10° N
SAR-Lupe-1 4.4 20:52:25 21° SE 20:54:32 49° ENE 20:58:00 10° N
USA 186 3.3 20:54:44 10° SSW 20:57:42 34° W 21:00:38 10° NNW
Cosmos 1437 Rocket 4.3 20:57:24 10° NNE 21:00:11 19° ENE 21:00:45 18° E
Cosmos 1833 Rocket 4.0 21:00:38 19° ESE 21:00:59 19° E 21:04:45 10° ENE
Meteor 2-13 Rocket 4.4 20:56:29 10° N 21:02:34 75° E 21:07:52 14° SSE
Envisat 3.1 20:58:00 11° S 21:02:58 80° WSW 21:08:04 10° NNW
DNEPR-1 R/B 3.8 21:00:30 10° NNW 21:04:46 58° ENE 21:07:16 26° SE
Cosmos 2327 Rocket 4.5 20:59:44 10° N 21:05:58 76° E 21:11:21 15° SSE
Helios 1B rocket 3.2 21:02:20 10° N 21:06:22 53° WNW 21:10:23 10° SSW
Cosmos 1656 Rocket 3.8 21:01:55 10° NNW 21:07:22 70° WSW 21:11:46 16° S
Meteor 2-4 Rocket 3.8 21:03:22 10° S 21:08:56 86° W 21:14:46 10° N
Hubble Space Telescope 2.7 21:08:22 10° SSW 21:09:49 15° S 21:09:49 15° S
COSMOS 2455 4.2 21:07:55 10° NW 21:13:14 34° WSW 21:18:31 10° S
Cosmos 405 3.2 21:10:15 10° N 21:13:42 49° E 21:14:29 40° ESE
Cosmos 1025 Rocket 2.9 21:12:54 18° S 21:16:02 77° E 21:20:18 10° N
COSMOS 2487 4.0 21:17:34 21° ENE 21:17:34 21° ENE 21:19:24 10° NE
Intercosmos 24 4.2 21:13:45 10° N 21:17:09 39° E 21:17:39 37° ESE
GENESIS II 4.1 21:16:38 10° NNW 21:20:34 84° ENE 21:21:45 43° SSE
Tiangong 2 4.1 21:27:49 10° NW 21:29:48 15° N 21:31:46 10° NNE
Okean 2 3.3 21:30:06 32° S 21:31:57 88° W 21:36:03 10° N
Cosmos 2058 Rocket 4.2 21:30:23 10° NNE 21:34:08 28° ENE 21:34:08 28° ENE
Cosmos 2181 Rocket 4.1 21:34:12 31° SSE 21:37:09 57° E 21:43:19 10° NNE
ARGOS 3.4 21:40:03 41° ESE 21:41:30 52° ENE 21:46:45 10° N
Cosmos 1371 Rocket 3.9 21:37:14 10° NNW 21:42:33 78° ENE 21:44:07 46° SSE
ERS-1 Rocket 3.0 21:41:27 37° S 21:43:29 79° WSW 21:48:32 10° NNW
Terra 3.7 21:46:50 16° ENE 21:46:50 16° ENE 21:49:36 10° NNE
SPOT 5 2.7 21:48:43 55° E 21:48:54 55° ENE 21:53:08 10° N
NOAA 11 4.1 21:47:14 42° SSE 21:49:11 89° ENE 21:54:38 10° NNW
Nimbus 7 Rocket 4.4 21:45:31 10° NNE 21:51:34 66° ESE 21:53:44 40° S
H-2A R/B 4.1 21:52:19 16° ENE 21:52:19 16° ENE 21:54:41 10° NNE
MetOp-B 4.1 21:59:38 48° S 22:01:08 77° WSW 22:06:31 10° NNW
ASTRO E2 4.5 21:57:46 10° W 21:59:46 22° SW 21:59:46 22° SW
Cosmos 962 Rocket 4.4 21:58:25 10° N 22:04:40 88° W 22:06:34 48° S
CENTAUR R/B 4.3 21:59:50 10° NW 22:07:02 35° WSW 22:12:04 19° SSW
Cosmos 2082 Rocket 2.1 22:05:18 43° SSW 22:07:18 88° ESE 22:12:59 10° NNE
Cosmos 2278 3.6 22:06:57 10° NNW 22:12:38 69° ENE 22:13:11 64° ESE
SL-24 DEB 4.2 22:14:20 71° WSW 22:14:31 72° W 22:19:08 10° N
MOS 1-B Rocket 4.4 22:16:58 40° SSW 22:18:46 55° W 22:24:51 10° NNW
H-2A R/B 1.9 22:21:05 77° NE 22:21:05 77° NE 22:25:55 10° N
SL-8 Rocket 3.9 22:16:03 10° N 22:22:20 77° E 22:23:08 67° SE
OAO 2 Rocket 3.3 22:18:30 10° WNW 22:23:02 74° WNW 22:23:02 74° WNW
Cosmos 2228 3.5 22:19:45 10° N 22:23:12 57° NNW 22:23:12 57° NNW
Cosmos 921 Rocket 3.5 22:22:22 10° NNW 22:26:11 58° WNW 22:26:11 58° WNW
Cosmos 2366 rocket 4.0 22:22:03 10° N 22:28:08 61° E 22:28:14 61° E
SL-08 RB Rocket 4.1 22:28:41 56° WNW 22:28:41 56° WNW 22:32:42 10° NNW
Cosmos 2369 3.6 22:26:45 10° NNW 22:32:29 80° WSW 22:32:38 80° SW
Mugunghwa Rocket 4.5 22:25:01 10° WSW 22:32:32 54° S 22:32:32 54° S
Cosmos 1697 Rocket 3.2 22:27:34 10° N 22:32:41 47° NE 22:32:41 47° NE
Cosmos 1656 3.6 22:34:27 10° NNW 22:39:30 75° NNE 22:39:30 75° NNE
Cosmos 1833 Rocket 3.5 22:42:12 31° WSW 22:44:26 46° WNW 22:49:51 10° N
DMSP B5D2-2 4.4 22:42:12 10° N 22:47:25 62° WNW 22:47:29 62° WNW
Cosmos 1269 Rocket 4.5 22:51:09 56° NNE 22:51:09 56° NNE 22:55:18 10° NNE
Cosmos 1959 Rocket 4.5 22:45:10 10° N 22:51:31 74° W 22:51:51 72° WSW
Timation 2 Rocket 4.2 22:53:45 55° WSW 22:54:56 66° WNW 23:01:07 10° NNE
Cosmos 2218 Rocket 4.4 23:02:46 10° NNW 23:08:43 51° W 23:08:53 51° W
Cosmos 1980 Rocket 2.9 23:15:40 10° NNW 23:19:54 51° N 23:19:54 51° N
Terra 3.4 23:25:42 30° NW 23:25:42 30° NW 23:28:32 10° NNW
H-2A R/B 4.1 23:29:27 25° NW 23:29:27 25° NW 23:31:43 10° NNW
Nadezhda 3 Rocket 4.3 23:31:32 63° NW 23:31:32 63° NW 23:37:15 10° N
Cosmos 2322 Rocket 3.7 23:26:53 10° N 23:30:47 28° NE 23:30:47 28° NE
USA 267 3.3 23:34:07 10° NE 23:40:17 72° NNW 23:40:17 72° NNW
Lacrosse 5 4.1 23:48:51 19° NE 23:48:51 19° NE 23:50:14 10° NE
Cosmos 1821 Rocket 4.5 23:45:44 10° N 23:50:40 58° N 23:50:40 58° N
